Flag for Canada Weather past 2 weeks in Niagara Falls, Ontario, Canada

Now
75 °F

Mostly cloudy.


Feels Like: 77 °F
Forecast: 71 / 83 °F
Wind: 12 mph from West

Location: Niagara Falls International Airport

Current Time: Jul 30, 2015 at 6:39:04 AM

Latest Report: Jul 30, 2015 at 5:53 AM


Visibility: 10 mi

Pressure: 29.80 "Hg

Humidity: 66%

Dew point: 63 °F

Location of Niagara FallsLocation

Historic Weather in Niagara Falls — Graph

°F

Niagara Falls temperature yesterday

Maximum temperature yesterday: 89 °F (at 1:53 PM)
Minimum temperature yesterday: 65 °F (at 4:53 AM)
Average temperature yesterday: 78 °F

Past Weeks' High & Low Weather Summary

 TemperatureHumidityPressure
High89 °F (Jul 29, 1:53 PM)100% (Jul 20, 5:59 AM)30.13 "Hg (Jul 20, 5:59 AM)
Low50 °F (Jul 16, 5:53 AM)31% (Jul 28, 5:53 PM)29.62 "Hg (Jul 21, 4:53 AM)
Average72 °F66%29.89 "Hg
* Reported Jul 15 4:53 AM — Jul 30 4:53 AM, Niagara Falls, Weather by CustomWeather, © 2015

Note: Actual official high and low records may vary slightly from our data, if they occured in-between our weather recording intervals... More about our weather records

Advertising

Niagara Falls weather history for previous 24 hours

 ConditionsComfort  
Time TempWeatherWind HumidityBarometerVisibility
4:53 AM
Thu, Jul 30
76 °FMostly cloudy.9 mph74%29.78 "Hg10 mi
3:53 AM76 °FMostly cloudy.7 mph77%29.78 "Hg10 mi
2:53 AM77 °FPassing clouds.10 mph74%29.79 "Hg10 mi
1:53 AM77 °FPassing clouds.9 mph77%29.80 "Hg8 mi
12:53 AM77 °FPassing clouds.8 mph82%29.81 "Hg7 mi
11:53 PM
Wed, Jul 29
77 °FPassing clouds.7 mph79%29.82 "Hg8 mi
10:53 PM77 °FPassing clouds.7 mph77%29.83 "Hg9 mi
9:53 PM79 °FPartly cloudy.9 mph62%29.83 "Hg10 mi
8:53 PM81 °FBroken clouds.8 mph56%29.83 "Hg10 mi
7:53 PM85 °FCloudy.13 mph46%29.84 "Hg10 mi
6:53 PM87 °FBroken clouds.8 mph40%29.84 "Hg10 mi
5:53 PM88 °FPartly sunny.10 mph38%29.85 "Hg10 mi
4:53 PM87 °FBroken clouds.10 mph40%29.87 "Hg10 mi
3:53 PM88 °FPartly sunny.9 mph38%29.88 "Hg10 mi
2:53 PM89 °FPartly sunny.13 mph34%29.90 "Hg10 mi
1:53 PM89 °FPartly sunny.10 mph41%29.91 "Hg10 mi
12:53 PM87 °FBroken clouds.10 mph48%29.93 "Hg10 mi
10:53 AM82 °FPartly sunny.6 mph55%29.95 "Hg10 mi
9:53 AM80 °FBroken clouds.8 mph58%29.96 "Hg10 mi
8:53 AM75 °FOvercast.5 mph74%29.96 "Hg10 mi
7:53 AM69 °FMore clouds than sun.No wind84%29.96 "Hg7 mi
7:00 AM66 °FFog.3 mph90%29.97 "Hg6 mi
Weather by CustomWeather, © 2015

See weather overviewHow to use our weather pages